{"data":{"norad_id":68573,"epoch":"2026-09-20T02:29:58.431264Z","epoch_age_seconds":100610,"freshness":"FRESH","line1":"1 68573U 26072A   26263.10414851  .00001920  00000+0  28080-3 0  9991","line2":"2 68573  51.9011 135.9298 0000839 107.3835 252.7220 14.79930679 25172","mean_motion":14.79930679,"eccentricity":8.39e-5,"inclination_deg":51.9011,"raan_deg":135.9298,"arg_perigee_deg":107.3835,"mean_anomaly_deg":252.722,"bstar":0.0002808,"rev_number":2517,"period_min":97.301854771537,"perigee_km":628.95501165812,"apogee_km":630.13090035473,"semimajor_km":7007.6799560064,"source":"CELESTRAK","updated_at":"2026-09-20T09:00:24.318111Z"}}